RYR9ZE LGSA-EPKK

Flight info

Callsign RYR9ZE
Flight time 2h 18m
Altitude 37000
Route SOKRI UY151 VELOP DCT ATV UM749 SKP UL617 BAMOS DCT PEREN DCT ATFIR N133 USALI DCT ERDOM DCT NARKA DCT KSC DCT KOJOT DCT RAZEC N133 LENOV
Aircraft B738/M-SDE3FGILRWY/SB1

Departure

Time 2026-05-08 14:29
Airport Chania International Airport (LGSA)

Arrival

Time 2026-05-08 16:47
Airport Kraków John Paul II International Airport (EPKK)
Time Latitude Longitude Altitude Speed Heading
2026-05-08 13:55 35.53906 24.13977 497 ft 0 kts 21°
2026-05-08 14:20 35.53883 24.13966 489 ft 4 kts 21°
2026-05-08 14:20 35.53858 24.13954 488 ft 4 kts 22°
2026-05-08 14:21 35.53837 24.13944 487 ft 4 kts
2026-05-08 14:21 35.53816 24.13950 496 ft 4 kts 305°
2026-05-08 14:21 35.53806 24.13972 494 ft 1 kts 291°
2026-05-08 14:21 35.53805 24.13976 493 ft 0 kts 291°
2026-05-08 14:25 35.53806 24.13973 497 ft 2 kts 291°
2026-05-08 14:25 35.53819 24.13933 495 ft 9 kts 291°
2026-05-08 14:26 35.53836 24.13845 497 ft 12 kts 247°
2026-05-08 14:26 35.53766 24.13797 490 ft 12 kts 205°
2026-05-08 14:26 35.53763 24.13717 497 ft 10 kts 292°
2026-05-08 14:26 35.53791 24.13637 495 ft 11 kts 292°
2026-05-08 14:27 35.53818 24.13528 493 ft 15 kts 261°
2026-05-08 14:27 35.53733 24.13466 490 ft 14 kts 201°
2026-05-08 14:27 35.53674 24.13441 494 ft 2 kts 163°
2026-05-08 14:27 35.53664 24.13462 489 ft 6 kts 109°
2026-05-08 14:28 35.53642 24.13531 495 ft 13 kts 112°
2026-05-08 14:28 35.53532 24.13866 500 ft 77 kts 112°
2026-05-08 14:28 35.53247 24.14742 489 ft 141 kts 111°
2026-05-08 14:28 35.52847 24.15997 832 ft 164 kts 111°
2026-05-08 14:29 35.52440 24.17316 1523 ft 168 kts 114°
2026-05-08 14:29 35.51948 24.18622 1946 ft 170 kts 117°
2026-05-08 14:29 35.51489 24.20068 2002 ft 202 kts 99°
2026-05-08 14:29 35.51790 24.21833 2003 ft 223 kts 55°
2026-05-08 14:30 35.53019 24.23017 2030 ft 236 kts 26°
2026-05-08 14:30 35.54482 24.24077 2026 ft 248 kts 33°
2026-05-08 14:30 35.55856 24.25370 2482 ft 249 kts 39°
2026-05-08 14:30 35.57142 24.26826 3101 ft 253 kts 43°
2026-05-08 14:31 35.58360 24.28413 3806 ft 257 kts 46°
2026-05-08 14:31 35.59521 24.30078 4655 ft 257 kts 47°
2026-05-08 14:31 35.60648 24.31798 5404 ft 261 kts 48°
2026-05-08 14:32 35.62880 24.35400 6851 ft 269 kts 48°
2026-05-08 14:32 35.64010 24.37280 7416 ft 277 kts 48°
2026-05-08 14:32 35.65165 24.39219 7895 ft 281 kts 49°
2026-05-08 14:32 35.66315 24.41161 7957 ft 282 kts 49°
2026-05-08 14:33 35.67504 24.43078 7968 ft 279 kts 39°
2026-05-08 14:33 35.69110 24.44181 7982 ft 258 kts
2026-05-08 14:33 35.70789 24.43903 7979 ft 240 kts 325°
2026-05-08 14:33 35.71967 24.42535 8035 ft 234 kts 308°
2026-05-08 14:34 35.73325 24.41369 8538 ft 244 kts 326°
2026-05-08 14:34 35.74585 24.40080 9341 ft 232 kts 301°
2026-05-08 14:34 35.75360 24.38359 10113 ft 230 kts 292°
2026-05-08 14:34 35.76087 24.36583 10719 ft 235 kts 295°
2026-05-08 14:35 35.76878 24.34813 10940 ft 236 kts 295°
2026-05-08 14:35 35.77647 24.33034 10961 ft 235 kts 294°
2026-05-08 14:35 35.78359 24.31219 11027 ft 237 kts 291°
2026-05-08 14:35 35.78982 24.29357 11582 ft 239 kts 288°
2026-05-08 14:36 35.79484 24.27424 12386 ft 236 kts 283°
2026-05-08 14:36 35.79864 24.25451 12849 ft 236 kts 281°
2026-05-08 14:36 35.80179 24.23449 13079 ft 241 kts 278°
2026-05-08 14:36 35.80414 24.21400 13099 ft 241 kts 276°
2026-05-08 14:37 35.80552 24.19350 13091 ft 240 kts 273°
2026-05-08 14:37 35.80592 24.17300 13104 ft 239 kts 270°
2026-05-08 14:37 35.80533 24.15258 13104 ft 239 kts 267°
2026-05-08 14:37 35.80378 24.13222 13098 ft 239 kts 264°
2026-05-08 14:38 35.80125 24.11197 13097 ft 239 kts 262°
2026-05-08 14:38 35.79775 24.09192 13099 ft 240 kts 259°
2026-05-08 14:38 35.79329 24.07208 13098 ft 241 kts 256°
2026-05-08 14:38 35.78786 24.05254 13107 ft 242 kts 253°
2026-05-08 14:39 35.78149 24.03334 13103 ft 242 kts 250°
2026-05-08 14:39 35.77440 24.01449 13100 ft 243 kts 248°
2026-05-08 14:39 35.76638 23.99612 13094 ft 244 kts 244°
2026-05-08 14:39 35.75930 23.97744 13073 ft 238 kts 264°
2026-05-08 14:40 35.76155 23.95769 13102 ft 237 kts 290°
2026-05-08 14:40 35.77113 23.94096 13100 ft 245 kts 310°
2026-05-08 14:40 35.78428 23.92728 13123 ft 250 kts 315°
2026-05-08 14:40 35.79818 23.91414 13644 ft 254 kts 315°
2026-05-08 14:41 35.81232 23.90090 14323 ft 256 kts 315°
2026-05-08 14:41 35.82658 23.88747 14837 ft 259 kts 315°
2026-05-08 14:41 35.84089 23.87391 15425 ft 262 kts 315°
2026-05-08 14:41 35.85540 23.86005 16103 ft 265 kts 315°
2026-05-08 14:42 35.87002 23.84605 16772 ft 269 kts 316°
2026-05-08 14:42 35.88524 23.83138 17011 ft 289 kts 316°
2026-05-08 14:42 35.90165 23.81552 17185 ft 310 kts 316°
2026-05-08 14:42 35.91922 23.79858 17345 ft 330 kts 317°
2026-05-08 14:43 35.93772 23.78081 17752 ft 341 kts 317°
2026-05-08 14:43 35.95661 23.76271 18364 ft 346 kts 317°
2026-05-08 14:43 35.97568 23.74445 18963 ft 348 kts 317°
2026-05-08 14:43 35.99491 23.72600 19542 ft 351 kts 317°
2026-05-08 14:44 36.01428 23.70738 20108 ft 355 kts 317°
2026-05-08 14:44 36.03358 23.68880 20662 ft 358 kts 317°
2026-05-08 14:44 36.05329 23.66981 21211 ft 361 kts 317°
2026-05-08 14:44 36.07318 23.65063 21747 ft 365 kts 318°
2026-05-08 14:45 36.09330 23.63121 22280 ft 368 kts 318°
2026-05-08 14:45 36.11356 23.61164 22801 ft 371 kts 318°
2026-05-08 14:45 36.13401 23.59187 23318 ft 375 kts 318°
2026-05-08 14:45 36.15462 23.57193 23794 ft 378 kts 318°
2026-05-08 14:46 36.17540 23.55182 24235 ft 380 kts 318°
2026-05-08 14:46 36.19627 23.53161 24707 ft 381 kts 317°
2026-05-08 14:46 36.21722 23.51131 25167 ft 383 kts 317°
2026-05-08 14:46 36.23877 23.49165 25600 ft 389 kts 323°
2026-05-08 14:47 36.26309 23.47626 26028 ft 397 kts 331°
2026-05-08 14:47 36.28941 23.46493 26434 ft 406 kts 340°
2026-05-08 14:47 36.31740 23.45818 26811 ft 412 kts 344°
2026-05-08 14:47 36.34585 23.45247 27192 ft 416 kts 345°
2026-05-08 14:48 36.37451 23.44698 27573 ft 418 kts 345°
2026-05-08 14:48 36.39362 23.44330 27821 ft 420 kts 344°
2026-05-08 14:48 36.42255 23.43764 28195 ft 423 kts 344°
2026-05-08 14:48 36.45167 23.43181 28558 ft 425 kts 343°
2026-05-08 14:49 36.48093 23.42586 28915 ft 427 kts 344°
2026-05-08 14:49 36.51033 23.41982 29285 ft 430 kts 344°
2026-05-08 14:49 36.53984 23.41371 29717 ft 430 kts 344°
2026-05-08 14:49 36.56938 23.40759 30096 ft 431 kts 344°
2026-05-08 14:50 36.59907 23.40143 30356 ft 434 kts 344°
2026-05-08 14:50 36.62895 23.39522 30603 ft 437 kts 344°
2026-05-08 14:50 36.65903 23.38896 30865 ft 439 kts 344°
2026-05-08 14:50 36.68921 23.38270 31135 ft 441 kts 344°
2026-05-08 14:51 36.71954 23.37640 31395 ft 443 kts 344°
2026-05-08 14:51 36.74998 23.37007 31692 ft 444 kts 343°
2026-05-08 14:51 36.78036 23.36376 32118 ft 441 kts 343°
2026-05-08 14:51 36.81054 23.35749 32527 ft 439 kts 343°
2026-05-08 14:52 36.84070 23.35119 32817 ft 440 kts 343°
2026-05-08 14:52 36.90110 23.33857 33436 ft 440 kts 342°
2026-05-08 14:52 36.93083 23.33236 33789 ft 438 kts 342°
2026-05-08 14:53 36.96087 23.32608 34100 ft 438 kts 342°
2026-05-08 14:53 36.99090 23.31979 34412 ft 437 kts 343°
2026-05-08 14:53 37.02069 23.31357 34836 ft 432 kts 342°
2026-05-08 14:53 37.05028 23.30737 35142 ft 430 kts 342°
2026-05-08 14:54 37.07985 23.30115 35362 ft 431 kts 342°
2026-05-08 14:54 37.10944 23.29492 35590 ft 431 kts 342°
2026-05-08 14:54 37.13914 23.28938 35869 ft 435 kts 348°
2026-05-08 14:54 37.16983 23.29081 36128 ft 448 kts
2026-05-08 14:55 37.20055 23.29914 36376 ft 456 kts
2026-05-08 14:55 37.23035 23.31417 36555 ft 470 kts 24°
2026-05-08 14:55 37.25717 23.33862 36717 ft 482 kts 34°
2026-05-08 14:55 37.28274 23.36580 36981 ft 480 kts 33°
2026-05-08 14:56 37.30905 23.39154 37046 ft 480 kts 29°
2026-05-08 14:56 37.36517 23.43717 37049 ft 482 kts 23°
2026-05-08 14:57 37.42399 23.47849 37071 ft 488 kts 21°
2026-05-08 14:57 37.48409 23.51974 37059 ft 496 kts 21°
2026-05-08 14:58 37.54489 23.56193 37063 ft 501 kts 22°
2026-05-08 14:58 37.60599 23.60484 37061 ft 503 kts 22°
2026-05-08 14:59 37.66678 23.64771 37048 ft 499 kts 22°
2026-05-08 14:59 37.75742 23.71165 37050 ft 496 kts 22°
2026-05-08 15:00 37.81757 23.75415 37045 ft 495 kts 22°
2026-05-08 15:00 37.87866 23.79110 37040 ft 480 kts
2026-05-08 15:01 37.91103 23.79822 37064 ft 468 kts 356°
2026-05-08 15:01 37.94318 23.79836 37042 ft 456 kts 345°
2026-05-08 15:01 38.00591 23.78807 37062 ft 456 kts 345°
2026-05-08 15:02 38.06918 23.77842 37059 ft 459 kts 345°
2026-05-08 15:02 38.13278 23.76926 37041 ft 461 kts 346°
2026-05-08 15:03 38.19633 23.76009 37068 ft 458 kts 345°
2026-05-08 15:03 38.25982 23.75089 37049 ft 460 kts 346°
2026-05-08 15:04 38.32346 23.74167 37033 ft 460 kts 346°
2026-05-08 15:04 38.38707 23.73246 37033 ft 460 kts 346°
2026-05-08 15:05 38.45068 23.72322 37042 ft 460 kts 346°
2026-05-08 15:05 38.51433 23.71395 37029 ft 461 kts 346°
2026-05-08 15:06 38.57800 23.70467 37023 ft 460 kts 346°
2026-05-08 15:06 38.64160 23.69538 37021 ft 460 kts 346°
2026-05-08 15:07 38.70522 23.68608 37036 ft 461 kts 346°
2026-05-08 15:07 38.76856 23.67678 37022 ft 461 kts 346°
2026-05-08 15:08 38.82199 23.66893 37025 ft 461 kts 346°
2026-05-08 15:08 38.89616 23.65802 37033 ft 463 kts 346°
2026-05-08 15:09 38.96024 23.64857 37031 ft 464 kts 346°
2026-05-08 15:09 39.02445 23.63908 37028 ft 465 kts 346°
2026-05-08 15:10 39.08918 23.62950 37057 ft 465 kts 346°
2026-05-08 15:10 39.15375 23.61991 37035 ft 468 kts 346°
2026-05-08 15:11 39.21562 23.60085 37031 ft 454 kts 331°
2026-05-08 15:11 39.27554 23.57373 37013 ft 466 kts 342°
2026-05-08 15:12 39.30815 23.56952 37030 ft 477 kts 353°
2026-05-08 15:12 39.34157 23.57336 37021 ft 490 kts
2026-05-08 15:12 39.40834 23.59407 37036 ft 495 kts
2026-05-08 15:13 39.47527 23.61596 37041 ft 496 kts
2026-05-08 15:13 39.54241 23.63723 37042 ft 497 kts
2026-05-08 15:14 39.60976 23.65809 37041 ft 498 kts
2026-05-08 15:14 39.67717 23.67890 37046 ft 498 kts
2026-05-08 15:15 39.74441 23.69972 37043 ft 495 kts
2026-05-08 15:15 39.81099 23.72043 37037 ft 491 kts
2026-05-08 15:16 39.87727 23.74107 37043 ft 489 kts
2026-05-08 15:16 39.94333 23.76168 37036 ft 488 kts
2026-05-08 15:17 40.00926 23.78228 37047 ft 487 kts
2026-05-08 15:17 40.07520 23.80293 37062 ft 487 kts
2026-05-08 15:18 40.14126 23.82365 37059 ft 489 kts
2026-05-08 15:18 40.20744 23.84447 37055 ft 489 kts
2026-05-08 15:19 40.27368 23.86535 37061 ft 490 kts
2026-05-08 15:19 40.33994 23.88627 37068 ft 490 kts
2026-05-08 15:20 40.40622 23.90725 37066 ft 490 kts
2026-05-08 15:20 40.47255 23.92829 37081 ft 490 kts
2026-05-08 15:21 40.53892 23.94938 37067 ft 491 kts
2026-05-08 15:21 40.60576 23.96231 37073 ft 482 kts 355°
2026-05-08 15:22 40.67144 23.95179 37093 ft 474 kts 345°
2026-05-08 15:22 40.73629 23.93534 37075 ft 474 kts 345°
2026-05-08 15:23 40.80120 23.91924 37070 ft 475 kts 345°
2026-05-08 15:23 40.86626 23.90360 37076 ft 475 kts 345°
2026-05-08 15:24 40.93135 23.88806 37079 ft 476 kts 346°
2026-05-08 15:24 40.99612 23.87258 37075 ft 476 kts 346°
2026-05-08 15:25 41.06126 23.85695 37081 ft 476 kts 346°
2026-05-08 15:25 41.12642 23.84127 37088 ft 476 kts 346°
2026-05-08 15:26 41.19160 23.82556 37072 ft 476 kts 346°
2026-05-08 15:26 41.25676 23.80982 37085 ft 476 kts 346°
2026-05-08 15:27 41.31100 23.79671 37079 ft 476 kts 346°
2026-05-08 15:27 41.32201 23.79404 37076 ft 476 kts 346°
2026-05-08 15:28 41.34634 23.78814 37076 ft 476 kts 346°
2026-05-08 15:29 41.41150 23.77273 37078 ft 476 kts 348°
2026-05-08 15:29 41.47743 23.76236 37075 ft 478 kts 351°
2026-05-08 15:30 41.54371 23.75393 37078 ft 479 kts 351°
2026-05-08 15:30 41.61003 23.74508 37085 ft 479 kts 351°
2026-05-08 15:31 41.67629 23.73576 37074 ft 479 kts 351°
2026-05-08 15:31 41.74255 23.72626 37074 ft 479 kts 351°
2026-05-08 15:32 41.80890 23.71674 37069 ft 479 kts 351°
2026-05-08 15:32 41.87519 23.70723 37058 ft 479 kts 351°
2026-05-08 15:33 41.94097 23.69778 37075 ft 478 kts 351°
2026-05-08 15:33 42.00716 23.68824 37051 ft 479 kts 351°
2026-05-08 15:34 42.07336 23.67869 37052 ft 478 kts 351°
2026-05-08 15:34 42.13952 23.66913 37064 ft 478 kts 351°
2026-05-08 15:35 42.20551 23.65956 37052 ft 476 kts 351°
2026-05-08 15:35 42.27140 23.65000 37045 ft 476 kts 351°
2026-05-08 15:36 42.32584 23.64044 37043 ft 473 kts 347°
2026-05-08 15:36 42.39013 23.62210 37049 ft 472 kts 344°
2026-05-08 15:37 42.45417 23.60235 37045 ft 472 kts 344°
2026-05-08 15:37 42.51825 23.58319 37047 ft 472 kts 345°
2026-05-08 15:38 42.58256 23.56445 37050 ft 473 kts 345°
2026-05-08 15:38 42.64690 23.54582 37048 ft 473 kts 345°
2026-05-08 15:39 42.71132 23.52711 37051 ft 474 kts 345°
2026-05-08 15:39 42.77580 23.50832 37044 ft 474 kts 345°
2026-05-08 15:40 42.84034 23.48947 37033 ft 474 kts 345°
2026-05-08 15:40 42.90489 23.47056 37054 ft 474 kts 345°
2026-05-08 15:41 42.96951 23.45161 37031 ft 475 kts 345°
2026-05-08 15:41 43.03419 23.43261 37038 ft 475 kts 345°
2026-05-08 15:42 43.09877 23.41356 37032 ft 475 kts 345°
2026-05-08 15:42 43.16334 23.39449 37033 ft 474 kts 345°
2026-05-08 15:43 43.22780 23.37545 37020 ft 474 kts 345°
2026-05-08 15:43 43.29221 23.35632 37021 ft 473 kts 345°
2026-05-08 15:44 43.35659 23.33717 37022 ft 473 kts 345°
2026-05-08 15:44 43.42059 23.31811 37015 ft 474 kts 345°
2026-05-08 15:45 43.48508 23.29887 37006 ft 474 kts 345°
2026-05-08 15:45 43.54927 23.27897 37009 ft 472 kts 343°
2026-05-08 15:46 43.61278 23.25609 37005 ft 471 kts 342°
2026-05-08 15:46 43.67612 23.23260 37011 ft 471 kts 342°
2026-05-08 15:47 43.73946 23.20942 36999 ft 471 kts 342°
2026-05-08 15:47 43.80284 23.18647 36985 ft 471 kts 342°
2026-05-08 15:48 43.89785 23.15209 36989 ft 470 kts 342°
2026-05-08 15:49 43.96119 23.12910 36982 ft 470 kts 342°
2026-05-08 15:49 44.02450 23.10606 36985 ft 470 kts 342°
2026-05-08 15:50 44.08783 23.08297 36979 ft 470 kts 342°
2026-05-08 15:50 44.15111 23.05983 36974 ft 470 kts 342°
2026-05-08 15:51 44.21436 23.03666 36974 ft 470 kts 342°
2026-05-08 15:51 44.27756 23.01345 36973 ft 470 kts 342°
2026-05-08 15:52 44.34085 22.99016 36981 ft 470 kts 342°
2026-05-08 15:52 44.40407 22.96685 36970 ft 470 kts 342°
2026-05-08 15:53 44.46697 22.94360 36974 ft 470 kts 342°
2026-05-08 15:53 44.53029 22.92014 36968 ft 471 kts 342°
2026-05-08 15:54 44.59359 22.89664 36968 ft 470 kts 342°
2026-05-08 15:54 44.65688 22.87309 36970 ft 470 kts 341°
2026-05-08 15:55 44.72014 22.84949 36967 ft 471 kts 341°
2026-05-08 15:55 44.81503 22.81400 36971 ft 470 kts 341°
2026-05-08 15:56 44.87823 22.79030 36983 ft 470 kts 341°
2026-05-08 15:56 44.94141 22.76654 36975 ft 469 kts 341°
2026-05-08 15:57 45.00447 22.74274 36999 ft 469 kts 341°
2026-05-08 15:57 45.06758 22.71894 36988 ft 469 kts 341°
2026-05-08 15:58 45.13067 22.69506 37008 ft 469 kts 341°
2026-05-08 15:58 45.19376 22.67113 37009 ft 470 kts 341°
2026-05-08 15:59 45.25689 22.64712 37016 ft 470 kts 341°
2026-05-08 15:59 45.32013 22.62302 36998 ft 470 kts 341°
2026-05-08 16:00 45.38267 22.59914 37042 ft 468 kts 340°
2026-05-08 16:00 45.44566 22.57501 37023 ft 468 kts 340°
2026-05-08 16:01 45.50842 22.55092 37015 ft 467 kts 341°
2026-05-08 16:01 45.57113 22.52687 37030 ft 466 kts 340°
2026-05-08 16:02 45.63378 22.50266 37015 ft 467 kts 340°
2026-05-08 16:02 45.69646 22.47841 37029 ft 467 kts 340°
2026-05-08 16:03 45.75917 22.45412 37018 ft 467 kts 340°
2026-05-08 16:03 45.82188 22.42976 37020 ft 467 kts 340°
2026-05-08 16:04 45.88467 22.40534 37006 ft 467 kts 340°
2026-05-08 16:04 45.94736 22.38088 37008 ft 467 kts 340°
2026-05-08 16:05 46.00997 22.35650 37017 ft 466 kts 340°
2026-05-08 16:05 46.07215 22.33207 37011 ft 467 kts 340°
2026-05-08 16:06 46.13478 22.30742 37012 ft 467 kts 340°
2026-05-08 16:06 46.19744 22.28274 37021 ft 467 kts 340°
2026-05-08 16:07 46.26006 22.25804 37026 ft 466 kts 340°
2026-05-08 16:07 46.32261 22.23330 37018 ft 466 kts 340°
2026-05-08 16:08 46.38514 22.20849 37020 ft 466 kts 340°
2026-05-08 16:08 46.44767 22.18363 37022 ft 466 kts 340°
2026-05-08 16:09 46.49960 22.16294 37029 ft 466 kts 339°
2026-05-08 16:09 46.57276 22.13373 37022 ft 466 kts 339°
2026-05-08 16:10 46.63528 22.10870 37015 ft 466 kts 339°
2026-05-08 16:10 46.69775 22.08363 37022 ft 465 kts 339°
2026-05-08 16:11 46.76015 22.05852 37032 ft 465 kts 339°
2026-05-08 16:11 46.82257 22.03335 37026 ft 466 kts 339°
2026-05-08 16:12 46.88501 22.00810 37021 ft 466 kts 339°
2026-05-08 16:12 46.94751 21.98278 37036 ft 466 kts 339°
2026-05-08 16:13 47.01001 21.95739 37018 ft 466 kts 339°
2026-05-08 16:13 47.07198 21.93216 37024 ft 465 kts 339°
2026-05-08 16:14 47.13437 21.90669 37028 ft 465 kts 339°
2026-05-08 16:14 47.19678 21.88115 37039 ft 465 kts 339°
2026-05-08 16:15 47.25909 21.85559 37025 ft 465 kts 339°
2026-05-08 16:15 47.32132 21.82980 37019 ft 464 kts 339°
2026-05-08 16:16 47.38345 21.80392 37022 ft 464 kts 339°
2026-05-08 16:16 47.44553 21.77800 37037 ft 463 kts 338°
2026-05-08 16:17 47.49712 21.75643 37028 ft 463 kts 339°
2026-05-08 16:17 47.56951 21.72610 37021 ft 463 kts 338°
2026-05-08 16:18 47.63139 21.70010 37022 ft 462 kts 338°
2026-05-08 16:18 47.69327 21.67404 37035 ft 462 kts 338°
2026-05-08 16:19 47.75503 21.64797 37023 ft 461 kts 338°
2026-05-08 16:19 47.81671 21.62186 37023 ft 460 kts 338°
2026-05-08 16:20 47.87824 21.59575 37037 ft 460 kts 338°
2026-05-08 16:20 47.93978 21.56958 37027 ft 460 kts 338°
2026-05-08 16:21 48.00123 21.54337 37031 ft 459 kts 338°
2026-05-08 16:21 48.06263 21.51712 37034 ft 459 kts 338°
2026-05-08 16:22 48.11363 21.49527 37031 ft 459 kts 338°
2026-05-08 16:22 48.18534 21.46447 37046 ft 459 kts 338°
2026-05-08 16:23 48.24668 21.43805 37037 ft 459 kts 338°
2026-05-08 16:23 48.30800 21.41158 37046 ft 458 kts 338°
2026-05-08 16:24 48.36925 21.38507 37028 ft 457 kts 338°
2026-05-08 16:24 48.43003 21.35868 37057 ft 458 kts 338°
2026-05-08 16:25 48.49144 21.33197 37053 ft 460 kts 338°
2026-05-08 16:25 48.55301 21.30512 37052 ft 461 kts 338°
2026-05-08 16:26 48.60461 21.28257 37068 ft 461 kts 338°
2026-05-08 16:26 48.66640 21.25549 36779 ft 464 kts 338°
2026-05-08 16:27 48.69737 21.24211 36524 ft 461 kts 339°
2026-05-08 16:27 48.72801 21.23047 36274 ft 461 kts 341°
2026-05-08 16:27 48.75935 21.21950 35810 ft 464 kts 341°
2026-05-08 16:27 48.79074 21.20872 35217 ft 460 kts 340°
2026-05-08 16:28 48.82177 21.19796 34583 ft 455 kts 340°
2026-05-08 16:28 48.85252 21.18706 33955 ft 453 kts 339°
2026-05-08 16:28 48.88310 21.17600 33205 ft 452 kts 339°
2026-05-08 16:28 48.91360 21.16489 32560 ft 449 kts 339°
2026-05-08 16:29 48.94395 21.15383 31865 ft 447 kts 339°
2026-05-08 16:29 48.97418 21.14282 31182 ft 446 kts 339°
2026-05-08 16:29 49.00429 21.13185 30492 ft 445 kts 339°
2026-05-08 16:29 49.03434 21.12089 29715 ft 444 kts 339°
2026-05-08 16:30 49.06437 21.10992 28886 ft 443 kts 339°
2026-05-08 16:30 49.09420 21.09902 28099 ft 440 kts 340°
2026-05-08 16:30 49.12375 21.08824 27560 ft 433 kts 340°
2026-05-08 16:30 49.15291 21.07760 26957 ft 429 kts 340°
2026-05-08 16:31 49.18178 21.06706 26378 ft 424 kts 340°
2026-05-08 16:31 49.21040 21.05658 25821 ft 421 kts 341°
2026-05-08 16:31 49.23871 21.04620 25267 ft 417 kts 341°
2026-05-08 16:31 49.26687 21.03585 24707 ft 415 kts 341°
2026-05-08 16:32 49.29479 21.02565 24168 ft 411 kts 342°
2026-05-08 16:32 49.32221 21.01403 23585 ft 406 kts 333°
2026-05-08 16:32 49.34604 20.99187 22954 ft 398 kts 315°
2026-05-08 16:32 49.36493 20.96122 22370 ft 394 kts 307°
2026-05-08 16:33 49.38237 20.92901 21789 ft 391 kts 307°
2026-05-08 16:33 49.39956 20.89679 21224 ft 389 kts 307°
2026-05-08 16:33 49.41869 20.86753 20648 ft 390 kts 319°
2026-05-08 16:33 49.44073 20.84347 20148 ft 387 kts 322°
2026-05-08 16:34 49.46246 20.82028 19581 ft 384 kts 322°
2026-05-08 16:34 49.48431 20.79679 18996 ft 382 kts 322°
2026-05-08 16:34 49.50598 20.77333 18443 ft 380 kts 322°
2026-05-08 16:34 49.52752 20.74989 17856 ft 377 kts 322°
2026-05-08 16:35 49.54872 20.72674 17266 ft 371 kts 322°
2026-05-08 16:35 49.56976 20.70369 16620 ft 371 kts 322°
2026-05-08 16:35 49.59070 20.68071 16065 ft 368 kts 322°
2026-05-08 16:35 49.61143 20.65793 15541 ft 364 kts 322°
2026-05-08 16:36 49.63197 20.63533 15049 ft 361 kts 322°
2026-05-08 16:36 49.65231 20.61293 14548 ft 358 kts 321°
2026-05-08 16:36 49.67248 20.59068 14015 ft 356 kts 321°
2026-05-08 16:36 49.69257 20.56850 13441 ft 354 kts 321°
2026-05-08 16:37 49.71251 20.54647 12871 ft 352 kts 321°
2026-05-08 16:37 49.73237 20.52449 12286 ft 350 kts 321°
2026-05-08 16:37 49.75205 20.50272 11884 ft 340 kts 321°
2026-05-08 16:37 49.77073 20.48207 11785 ft 323 kts 321°
2026-05-08 16:38 49.78865 20.46223 11568 ft 313 kts 321°
2026-05-08 16:38 49.80626 20.44266 11180 ft 311 kts 321°
2026-05-08 16:38 49.82380 20.42314 10769 ft 310 kts 321°
2026-05-08 16:38 49.84131 20.40365 10396 ft 307 kts 321°
2026-05-08 16:39 49.85812 20.38495 10295 ft 289 kts 321°
2026-05-08 16:39 49.87435 20.36688 10011 ft 287 kts 321°
2026-05-08 16:39 49.89057 20.34874 9691 ft 288 kts 320°
2026-05-08 16:39 49.90676 20.33064 9444 ft 285 kts 320°
2026-05-08 16:40 49.92275 20.31278 9172 ft 283 kts 320°
2026-05-08 16:40 49.93868 20.29496 8867 ft 282 kts 321°
2026-05-08 16:40 49.95450 20.27726 8671 ft 277 kts 321°
2026-05-08 16:40 49.96972 20.26024 8573 ft 263 kts 321°
2026-05-08 16:41 49.98437 20.24383 8449 ft 257 kts 321°
2026-05-08 16:41 49.99879 20.22765 8206 ft 255 kts 321°
2026-05-08 16:41 50.01316 20.21149 7960 ft 254 kts 321°
2026-05-08 16:42 50.04153 20.17959 7243 ft 251 kts 321°
2026-05-08 16:42 50.05556 20.16381 6999 ft 245 kts 321°
2026-05-08 16:42 50.06904 20.14866 6920 ft 233 kts 321°
2026-05-08 16:42 50.08185 20.13425 6824 ft 221 kts 321°
2026-05-08 16:43 50.09396 20.12060 6739 ft 208 kts 321°
2026-05-08 16:43 50.10543 20.10768 6502 ft 201 kts 321°
2026-05-08 16:43 50.11526 20.09259 6033 ft 199 kts 295°
2026-05-08 16:43 50.11709 20.07100 5289 ft 212 kts 259°
2026-05-08 16:44 50.11408 20.04786 4546 ft 224 kts 259°
2026-05-08 16:44 50.11106 20.02355 3790 ft 232 kts 259°
2026-05-08 16:44 50.10777 19.99927 3375 ft 225 kts 260°
2026-05-08 16:44 50.10451 19.97600 3060 ft 215 kts 260°
2026-05-08 16:45 50.10138 19.95382 2786 ft 204 kts 260°
2026-05-08 16:45 50.09841 19.93274 2519 ft 195 kts 260°
2026-05-08 16:45 50.09561 19.91283 2282 ft 181 kts 260°
2026-05-08 16:45 50.09305 19.89460 2053 ft 165 kts 261°
2026-05-08 16:46 50.09067 19.87752 1836 ft 158 kts 259°
2026-05-08 16:46 50.08836 19.86097 1640 ft 155 kts 259°
2026-05-08 16:46 50.08607 19.84459 1437 ft 154 kts 259°
2026-05-08 16:46 50.08378 19.82837 1204 ft 151 kts 260°
2026-05-08 16:47 50.08148 19.81255 998 ft 150 kts 259°
2026-05-08 16:47 50.07925 19.79653 824 ft 151 kts 261°
2026-05-08 16:47 50.07749 19.78295 799 ft 79 kts 257°
2026-05-08 16:47 50.07671 19.77752 797 ft 46 kts 258°
2026-05-08 16:48 50.07608 19.77298 800 ft 28 kts 257°
2026-05-08 16:48 50.07567 19.77006 801 ft 27 kts 258°
2026-05-08 16:48 50.07482 19.76846 800 ft 18 kts 179°
2026-05-08 16:48 50.07368 19.76883 799 ft 12 kts 168°
2026-05-08 16:49 50.07308 19.76958 799 ft 12 kts 93°
2026-05-08 16:49 50.07324 19.77086 799 ft 12 kts 78°
2026-05-08 16:49 50.07341 19.77209 799 ft 11 kts 77°
2026-05-08 16:49 50.07359 19.77329 799 ft 11 kts 78°
2026-05-08 16:50 50.07375 19.77445 799 ft 11 kts 77°
2026-05-08 16:50 50.07391 19.77559 799 ft 11 kts 78°
2026-05-08 16:50 50.07406 19.77670 799 ft 10 kts 78°
2026-05-08 16:50 50.07421 19.77776 799 ft 10 kts 77°
2026-05-08 16:51 50.07436 19.77884 799 ft 11 kts 78°
2026-05-08 16:51 50.07455 19.78023 799 ft 16 kts 77°
2026-05-08 16:51 50.07484 19.78225 799 ft 21 kts 78°
2026-05-08 16:51 50.07514 19.78445 799 ft 20 kts 77°
2026-05-08 16:52 50.07543 19.78652 799 ft 19 kts 77°
2026-05-08 16:52 50.07569 19.78842 799 ft 16 kts 78°
2026-05-08 16:52 50.07592 19.79004 799 ft 15 kts 77°
2026-05-08 16:52 50.07614 19.79160 799 ft 14 kts 78°
2026-05-08 16:53 50.07654 19.79452 799 ft 13 kts 78°
2026-05-08 16:53 50.07674 19.79589 799 ft 13 kts 77°
2026-05-08 16:53 50.07692 19.79723 799 ft 12 kts 78°
2026-05-08 16:54 50.07701 19.79840 799 ft 9 kts 106°
2026-05-08 16:54 50.07649 19.79887 799 ft 9 kts 167°
2026-05-08 16:54 50.07589 19.79908 799 ft 9 kts 168°
2026-05-08 16:54 50.07530 19.79929 799 ft 9 kts 155°
2026-05-08 16:55 50.07513 19.80002 799 ft 7 kts 78°
2026-05-08 16:55 50.07519 19.80056 799 ft 2 kts 96°
2026-05-08 16:55 50.07506 19.80067 799 ft 2 kts 168°
2026-05-08 16:55 50.07490 19.80074 799 ft 2 kts 164°
2026-05-08 16:56 50.07473 19.80079 799 ft 0 kts 168°